Location: Barrialito
(10.3588°N, 66.9747°W)
Time: 15:45:12
(UTC+00:00)

Cosmos 1862 Rocket - Pass Details

Date: 06 July 2022
Orbit: 603 x 633 km, 82.5° (Epoch: 13 August)

Event Time Altitude Azimuth Distance (km) Brightness Sun altitude
Rises 07:47:51 0° 29° (NNE) 2,845 7.8 -31.9°
Reaches altitude 10° 07:51:21 10° 59° (ENE) 1,946 7.0 -31.2°
Maximum altitude 07:53:07 12° 83° (E) 1,800 6.6 -30.9°
Drops below altitude 10° 07:54:54 10° 108° (ESE) 1,952 6.5 -30.5°
Sets 07:58:24 0° 138° (SE) 2,863 7.1 -29.8°
